Total_Precipitation_Accumulation
0.01 0.04 0.03 0.02 0.03 0.06 0.08 0.17 0.30 0.30 0.30 0.39 0.48 0.67 0.85 0.95 1.28 1.58 1.81 1.75 1.69 2.01 2.49 2.85 3.16 3.23 3.55 3.75 3.93 3.97 4.23 4.70 5.07 4.93 4.63 4.52 4.34 4.11 3.85 3.62 3.58 3.65 3.63 3.82
0.02 0.02 0.02 0.02 0.02 0.04 0.06 0.13 0.25 0.31 0.31 0.45 0.63 0.82 0.94 1.14 1.44 1.60 1.59 1.49 1.63 2.02 2.52 2.89 3.15 3.24 3.49 3.78 4.22 4.39 4.62 5.03 5.20 5.06 4.95 4.85 4.78 4.37 4.23 4.09 4.01 3.62 3.44 3.57
0.02 0.02 0.02 0.02 0.03 0.04 0.07 0.14 0.22 0.28 0.38 0.57 0.75 1.17 1.28 1.45 1.58 1.60 1.54 1.70 1.71 1.77 2.19 2.47 2.58 2.73 2.91 3.06 3.34 3.66 4.21 4.77 5.00 5.09 5.00 4.97 5.02 4.57 4.32 4.21 4.08 3.71 3.43 3.32
0.02 0.02 0.02 0.02 0.03 0.04 0.09 0.11 0.14 0.20 0.35 0.67 0.82 1.54 1.70 1.85 1.98 1.84 1.73 1.62 1.61 1.82 2.13 2.14 1.97 2.10 2.34 2.33 2.66 3.11 3.62 4.02 4.29 4.40 4.41 4.49 4.49 4.41 4.33 4.24 3.89 3.71 3.46 3.31
0.02 0.03 0.03 0.05 0.04 0.04 0.08 0.11 0.15 0.22 0.38 0.67 0.75 1.18 1.81 2.08 2.24 1.84 1.69 1.53 1.58 1.80 1.82 1.78 1.80 1.90 2.03 2.18 2.50 2.82 3.20 3.53 3.72 3.84 3.95 4.09 4.01 4.04 3.94 3.85 3.69 3.52 3.41 3.25
0.03 0.05 0.05 0.05 0.05 0.06 0.08 0.14 0.25 0.35 0.61 1.07 0.93 1.04 1.66 2.01 1.83 1.58 1.49 1.28 1.38 1.55 1.64 1.68 1.78 1.90 2.02 2.30 2.64 2.91 3.18 3.44 3.53 3.34 3.27 3.36 3.43 3.51 3.49 3.35 3.21 3.04 3.04 2.97
0.14 0.11 0.09 0.07 0.08 0.10 0.12 0.26 0.80 1.23 1.57 1.47 0.95 1.06 1.70 1.56 1.24 1.16 1.24 1.23 1.24 1.25 1.38 1.48 1.66 1.86 2.08 2.20 2.23 2.64 3.08 3.28 3.20 2.99 2.84 2.81 2.99 3.13 3.09 2.96 2.96 2.93 2.80 2.74
0.29 0.27 0.15 0.11 0.14 0.16 0.16 0.29 0.85 1.16 1.29 1.24 1.04 1.47 2.00 1.53 1.09 0.93 1.03 1.04 0.96 0.93 0.86 0.93 1.11 1.23 1.37 1.40 1.41 1.60 1.89 2.13 2.23 2.18 2.25 2.34 2.43 2.53 2.54 2.76 2.66 2.70 2.61 2.50
0.18 0.17 0.13 0.14 0.19 0.20 0.27 0.32 0.35 0.60 0.83 1.26 1.35 1.55 1.71 1.39 1.07 1.02 1.10 1.04 0.88 0.84 0.74 0.82 0.95 1.00 1.06 1.08 1.12 1.27 1.55 1.82 1.89 1.91 1.99 2.08 2.14 2.22 2.25 2.32 2.30 2.28 2.37 2.32
0.12 0.13 0.14 0.13 0.18 0.21 0.23 0.31 0.48 0.77 1.03 1.24 1.39 1.79 2.02 1.80 1.47 1.25 1.24 1.16 0.94 0.78 0.74 0.81 0.92 0.96 1.06 1.16 1.33 1.45 1.59 1.75 1.78 1.75 1.77 1.74 1.91 2.00 2.05 2.04 1.96 2.00 2.08 2.07
0.09 0.11 0.16 0.21 0.24 0.25 0.27 0.35 0.51 0.71 0.77 1.03 1.50 1.70 1.48 1.39 1.36 1.50 1.41 1.19 0.95 0.78 0.74 0.86 0.93 1.02 1.14 1.25 1.34 1.49 1.63 1.76 1.74 1.65 1.72 1.85 1.97 2.06 1.97 1.89 1.78 1.86 1.97 2.03
0.10 0.13 0.19 0.28 0.24 0.19 0.26 0.37 0.52 0.80 0.85 0.88 1.09 1.32 0.97 0.99 1.10 1.22 1.26 1.09 0.93 0.87 0.84 0.84 0.95 1.08 1.31 1.33 1.34 1.39 1.56 1.72 1.73 1.73 1.84 2.11 2.13 2.11 2.00 1.84 1.77 1.86 1.95 1.98
0.16 0.17 0.31 0.59 0.55 0.30 0.29 0.28 0.39 0.55 0.68 0.78 1.04 1.28 0.91 0.99 1.13 1.17 1.23 1.12 0.98 0.94 0.91 0.97 1.04 1.04 1.19 1.32 1.42 1.50 1.62 1.70 1.85 1.92 2.03 2.22 2.24 2.16 1.96 1.87 1.85 1.90 1.96 2.03
0.14 0.16 0.28 0.69 0.73 0.49 0.35 0.31 0.34 0.48 0.62 0.61 0.66 0.94 0.98 1.00 1.18 1.23 1.24 1.17 1.09 0.95 0.97 1.15 1.26 1.25 1.27 1.30 1.42 1.56 1.64 1.70 1.71 1.75 1.85 1.95 1.94 1.94 1.86 1.88 1.89 1.89 1.92 1.92
0.15 0.19 0.20 0.30 0.41 0.44 0.41 0.34 0.31 0.34 0.37 0.52 0.64 0.85 1.09 1.12 1.21 1.16 1.12 1.07 1.03 0.99 1.00 1.13 1.15 1.13 1.11 1.09 1.18 1.38 1.36 1.42 1.55 1.65 1.71 1.78 1.84 1.89 1.91 1.85 1.76 1.81 1.88 1.84
0.21 0.27 0.25 0.32 0.41 0.46 0.44 0.39 0.34 0.33 0.30 0.39 0.54 0.78 0.89 0.97 1.06 1.13 1.15 1.16 1.06 1.03 1.14 1.06 0.99 0.96 1.11 1.13 1.14 1.27 1.28 1.33 1.47 1.52 1.56 1.75 1.87 1.89 1.86 1.76 1.78 1.84 1.90 1.95
0.34 0.39 0.37 0.41 0.50 0.63 0.64 0.42 0.38 0.41 0.37 0.50 0.80 0.95 0.96 1.14 1.15 1.07 1.08 1.14 1.03 1.00 1.12 1.13 1.14 1.04 1.14 1.24 1.25 1.24 1.32 1.39 1.44 1.47 1.53 1.61 1.72 1.77 1.67 1.59 1.66 1.73 1.82 1.95
0.40 0.57 0.59 0.56 0.74 0.95 0.76 0.46 0.41 0.46 0.47 0.51 0.69 0.78 0.88 1.16 1.19 1.00 0.93 0.96 0.94 0.93 0.95 1.06 1.16 1.22 1.32 1.27 1.36 1.50 1.56 1.57 1.57 1.67 1.74 1.70 1.79 1.95 1.97 1.93 1.93 2.00 2.06 2.06
0.35 0.55 0.64 0.71 0.89 0.93 0.79 0.63 0.58 0.65 0.76 0.62 0.68 0.76 0.85 0.87 0.98 1.08 0.90 0.92 0.95 0.89 0.94 1.05 1.21 1.34 1.46 1.42 1.44 1.65 1.73 1.82 1.85 1.86 1.95 1.94 1.94 2.10 2.23 2.23 2.28 2.36 2.39 2.24
0.44 0.58 0.75 0.74 0.94 1.11 0.95 0.77 0.69 0.80 1.34 0.98 0.79 0.78 0.91 1.00 1.36 1.45 1.08 0.96 0.99 1.02 1.13 1.22 1.27 1.44 1.55 1.58 1.75 1.93 1.97 2.12 2.19 2.11 2.13 2.20 2.28 2.34 2.45 2.65 2.87 2.94 2.92 2.84
0.89 0.93 0.93 0.93 1.03 1.05 0.91 0.77 0.78 1.34 1.65 1.10 0.91 0.85 0.93 1.08 1.22 1.23 1.08 1.00 1.05 1.16 1.33 1.48 1.64 1.78 1.93 1.87 1.96 2.20 2.37 2.41 2.44 2.52 2.55 2.59 2.68 2.77 2.87 3.14 3.27 3.30 3.27 3.38
1.23 1.24 1.20 1.22 1.46 1.52 1.06 1.06 1.28 1.53 1.33 1.15 1.12 1.08 1.02 1.02 1.05 1.18 1.23 1.23 1.23 1.26 1.44 1.51 1.63 1.79 1.96 2.13 2.27 2.47 2.46 2.52 2.75 2.74 2.71 2.79 3.01 2.94 2.99 3.30 3.26 3.32 3.48 3.50
1.28 1.34 1.40 1.48 1.61 1.49 1.31 1.40 1.45 1.35 1.46 1.39 1.21 1.21 1.15 1.12 1.05 1.07 1.22 1.32 1.38 1.34 1.40 1.52 1.51 1.61 1.83 2.00 2.13 2.40 2.58 2.60 2.65 2.73 2.78 2.93 3.14 3.29 3.38 3.58 3.68 3.61 3.54 3.44
1.47 1.25 1.46 1.69 1.79 1.67 1.71 1.66 1.56 1.49 1.49 1.37 1.19 1.24 1.25 1.19 1.11 1.13 1.24 1.30 1.32 1.31 1.36 1.43 1.44 1.58 1.74 1.86 2.08 2.36 2.50 2.52 2.69 2.79 2.85 2.98 3.15 3.28 3.36 3.52 3.57 3.56 3.46 3.39
1.71 1.60 1.86 2.12 2.16 2.13 2.13 1.94 1.68 1.50 1.36 1.29 1.22 1.27 1.28 1.27 1.30 1.24 1.29 1.37 1.28 1.20 1.25 1.35 1.37 1.48 1.65 1.68 1.89 2.15 2.37 2.52 2.73 2.91 3.00 3.10 3.24 3.39 3.49 3.41 3.47 3.50 3.43 3.34
1.82 1.97 2.23 2.44 2.22 2.24 2.32 2.05 1.71 1.62 1.63 1.57 1.58 1.58 1.55 1.55 1.52 1.37 1.29 1.29 1.25 1.21 1.27 1.42 1.46 1.52 1.60 1.63 1.80 2.02 2.27 2.50 2.83 2.95 3.03 3.06 3.10 3.22 3.22 3.21 3.21 3.26 3.18 3.16